Simultaneous Nadir Overpasses (SNOs) Predictions

Prediction of SNOs between GOES-16 and METOP-B Satellite Orbit:

Table of predicted SNOs for the next 14.0 days since TLE Epoch: 8/17/2024
Index Date Time (GOES-16) GOES-16 Lat,Lon METOP-B Lat,Lon Distance(km) Time Diff (sec)
1 08/17/2024 14:08:53 -0.02, -75.21 -0.74, -72.03 362.59 80
2 08/19/2024 02:25:14 0.03, -75.21 -0.31, -76.64 163.50 80
3 08/20/2024 02:07:16 0.03, -75.21 0.81, -71.66 405.15 80
4 08/21/2024 14:23:29 -0.04, -75.23 0.18, -76.24 114.75 80
5 08/22/2024 14:05:30 -0.03, -75.24 -0.89, -71.25 454.55 80
6 08/24/2024 02:21:51 0.03, -75.26 -0.12, -75.86 69.79 80
7 08/25/2024 02:03:27 0.03, -75.27 1.02, -70.88 499.79 55
8 08/26/2024 14:20:05 -0.03, -75.29 -0.00, -75.46 19.14 80
9 08/29/2024 02:18:25 0.03, -75.32 0.06, -75.08 27.47 80
10 08/30/2024 14:39:58 -0.02, -75.36 0.93, -79.66 490.42 80
